Loading…
Loading parcel record…
Hopewell Twp, NJ·Mercer County
Owner email, phone, and authorized agent are available on Pro.
| Date | Price | Book / Page | Verified by |
|---|---|---|---|
| 10/6/2023 | $825,000 | — | Recorded deed |
| 2/1/1988 | $1 | 2430 / 881 | Tax assessor |
Activity captured from the county clerk's daily feed. Includes deeds, mortgages, and other recorded filings.
| Date |
|---|
| Type |
|---|
| Grantor |
|---|
| Grantee |
|---|
| Book / Page |
|---|
| Instrument |
|---|
| 2026-04-29 | DIS | — | — | 1694 / 1853 | 2026017904 |
| 2026-04-01 | DISCHARGE OF MORTGAGE | — | — | 1693 / 1289 | 2026013912 |
| 2025-09-17 | DEED | — | — | 6604 / 248 | 2025034245 |
| 2024-08-26 | MORTGAGE | — | — | 11897 / 32 | 2024029626 |
| 2023-10-20 | DEED | — | — | 6538 / 722 | 2023035915 |
| 2023-10-17 | MORTGAGE | — | — | 11837 / 1121 | 2023035381 |
| 2023-10-17 | DEED | — | — | 6537 / 1881 | 2023035380 |
| 2023-08-24 | DEED | — | — | 6532 / 736 | 2023029176 |
| 2023-06-15 | DEED | — | — | 6525 / 1736 | 2023020911 |
| 2022-12-13 | DEED | — | — | 6509 / 637 | 2022054497 |
| 2022-08-16 | DEED | — | — | 6496 / 677 | 2022038673 |
| 2021-07-28 | CANCEL MORTGAGE | — | — | 752 / 1212 | 2021045355 |
| 2021-05-12 | DEED | — | — | 6441 / 200 | 2021029829 |
| 2020-05-22 | DEED | — | — | 6404 / 767 | 2020021502 |
| 2020-01-29 | DEED | — | — | 6395 / 326 | 2020004546 |
| 2020-01-13 | DEED | — | — | 6393 / 963 | 2020001975 |
| 2019-07-17 | MORTGAGE | — | — | 11420 / 757 | 2019029883 |
| 2019-07-17 | DEED | — | — | 6374 / 805 | 2019029882 |
| 2019-05-13 | NOTICE OF SETTLEMENT | — | — | 1513 / 1856 | 2019019333 |
| 2019-01-10 | DEED | — | — | 6354 / 1262 | 2019001293 |
| 2018-09-04 | CANCEL MORTGAGE | — | — | 719 / 508 | 2018038002 |
| 2018-09-04 | CANCEL MORTGAGE | — | — | 719 / 504 | 2018038001 |
| 2018-08-31 | DEED | — | — | 6339 / 1605 | 2018037857 |
| 2018-07-31 | NOTICE OF SETTLEMENT | — | — | 1503 / 1736 | 2018031810 |
| 2018-03-29 | DEED | — | — | 6321 / 1283 | 2018013330 |
| 2018-02-09 | DEED | — | — | 6316 / 1500 | 2018005822 |
| 2018-02-09 | DEED | — | — | 6316 / 1489 | 2018005820 |
| 2018-02-05 | DEED | — | — | 6315 / 1751 | 2018004907 |
| 2001-09-24 | ASN | — | — | 801 / 206 | 2001040643 |
| 2001-04-10 | ASN | — | — | 763 / 153 | 2001012729 |